This is the latest recevied weather packets stored in our database for station/object WX5II-2. If no packets are shown the sender has not sent any weather packets the latest 10 day(s).
| Time | Temp. | Humidity | Pressure | Rain* | Wind** | Luminosity | Snow |
|---|---|---|---|---|---|---|---|
| 1777906772 | 20.56° C | 62% | 1015.4 hPa | 0 mm | 0 m/s | - | - |
| 1777906149 | 20.56° C | 62% | 1015.4 hPa | 0 mm | 0 m/s | - | - |
| 1777905525 | 20.56° C | 63% | 1015.4 hPa | 0 mm | 0 m/s | - | - |
| 1777904902 | 20° C | 64% | 1015.4 hPa | 0 mm | 0 m/s | - | - |
| 1777904280 | 19.44° C | 65% | 1015.4 hPa | 0 mm | 0 m/s | - | - |
| 1777903656 | 19.44° C | 64% | 1015.4 hPa | 0 mm | 0 m/s | - | - |
| 1777903034 | 18.89° C | 67% | 1015.4 hPa | 0 mm | 0 m/s | - | - |
| 1777902412 | 18.33° C | 69% | 1015.4 hPa | 0 mm | 0 m/s | - | - |
| 1777901788 | 17.78° C | 74% | 1015.4 hPa | 0 mm | 0 m/s | - | - |
| 1777901166 | 16.67° C | 74% | 1015.4 hPa | 0 mm | 0 m/s | - | - |
| 1777900543 | 16.67° C | 77% | 1016.4 hPa | 0 mm | 0 m/s | - | - |
| 1777899920 | 16.11° C | 78% | 1016.4 hPa | 0 mm | 0 m/s | - | - |
| 1777899299 | 16.11° C | 78% | 1016.4 hPa | 0 mm | 0 m/s | - | - |
| 1777898675 | 15.56° C | 77% | 1016.4 hPa | 0 mm | 0 m/s | - | - |
| 1777898054 | 15.56° C | 76% | 1015.4 hPa | 0 mm | 0 m/s | - | - |
| 1777897430 | 15.56° C | 76% | 1015.4 hPa | 0 mm | 0 m/s | - | - |
| 1777896808 | 15.56° C | 75% | 1015.4 hPa | 0 mm | 0 m/s | - | - |
| 1777896185 | 15.56° C | 74% | 1015.4 hPa | 0 mm | 0 m/s | - | - |
| 1777895562 | 15.56° C | 73% | 1015.4 hPa | 0 mm | 0 m/s | - | - |
| 1777894941 | 15.56° C | 73% | 1015.4 hPa | 0 mm | 0 m/s | - | - |
| 1777894317 | 15.56° C | 72% | 1015.4 hPa | 0 mm | 0 m/s | - | - |
| 1777893695 | 16.11° C | 71% | 1015.4 hPa | 0 mm | 0 m/s | - | - |
| 1777893072 | 16.11° C | 71% | 1015.4 hPa | 0 mm | 0 m/s | - | - |
| 1777892449 | 16.11° C | 71% | 1015.4 hPa | 0 mm | 0 m/s | - | - |
| 1777891828 | 16.11° C | 70% | 1015.4 hPa | 0 mm | 0 m/s | - | - |
* Rain latest hour (hover to see other rain measurements)
** Current wind speed in m/s (hover to see current wind gust speed)